, AK

(GMT )
Portage Glacier

Weather History for PATO - February, 2014

Change the Weather History Date:

Sunday, February 2, 2014

  Actual Average Record
Temperature  
Mean Temperature 26 °F -  
Max Temperature 35 °F - - ()
Min Temperature 18 °F - - ()
Degree Days  
Heating Degree Days 38    
Moisture  
Dew Point 19 °F    
Average Humidity 89    
Maximum Humidity 100    
Minimum Humidity 54    
Precipitation  
Precipitation 0.00 in - - ()
Sea Level Pressure  
Sea Level Pressure 30.40 in    
Wind  
Wind Speed 1 mph (SE)    
Max Wind Speed 12 mph    
Max Gust Speed 20 mph    
Visibility 4 miles    
Events Fog    
Averages and records for this station are not official NWS values.
T = Trace of Precipitation, MM = Missing Value Source: NWS Daily Summary

Daily Weather History Graph

Daily Weather History Graph

Search for Another Location

Airport or City:

Astronomy

Feb. 02, 2014 Rise Set
Actual Time 9:10 AM AKST 5:08 PM AKST
Civil Twilight 8:21 AM AKST 5:57 PM AKST
Nautical Twilight 7:30 AM AKST 6:49 PM AKST
Astronomical Twilight 6:40 AM AKST 7:38 PM AKST
Moon 9:34 AM AKST (2/2) 10:22 PM AKST (2/2)
Length of Visible Light 9h 35m
Length of Day
7h 58m
Waxing Crescent, 12% of the Moon is Illuminated
Feb 2
Waxing Crescent
Feb 6
First Quarter
Feb 14
Full
Feb 22
Last Quarter
Feb 28
New

Hourly Weather History & Observations

Time (AKST) Temp. Windchill Dew Point Humidity Pressure Visibility Wind Dir Wind Speed Gust Speed Precip Events Conditions
12:16 AM 19.9 °F - 19.9 °F 100% 30.41 in 2.0 mi Calm Calm - N/A   Overcast
12:24 AM 19.9 °F - 19.9 °F 100% 30.41 in 3.0 mi Calm Calm - N/A   Overcast
12:27 AM 19.9 °F - 19.0 °F 96% 30.41 in 1.8 mi Calm Calm - N/A   Overcast
12:51 AM 19.4 °F - 19.4 °F 100% 30.41 in 3.0 mi Calm Calm - N/A   Overcast
12:52 AM 19.9 °F - 19.0 °F 96% 30.42 in 3.0 mi Calm Calm - N/A   Overcast
1:32 AM 19.9 °F - 18.0 °F 92% 30.42 in 2.0 mi Calm Calm - N/A   Overcast
1:41 AM 19.9 °F - 19.0 °F 96% 30.42 in 0.8 mi Calm Calm - N/A   Mist
1:53 AM 19.9 °F - 19.0 °F 96% 30.42 in 0.5 mi Calm Calm - N/A Fog Light Freezing Fog
2:06 AM 19.0 °F - 19.0 °F 100% 30.41 in 2.0 mi Calm Calm - N/A   Overcast
2:15 AM 19.9 °F - 19.0 °F 96% 30.41 in 1.8 mi Calm Calm - N/A   Overcast
2:43 AM 19.9 °F - 19.0 °F 96% 30.41 in 0.8 mi Calm Calm - N/A   Mist
2:53 AM 19.9 °F - 19.0 °F 96% 30.42 in 0.5 mi Calm Calm - N/A Fog Light Freezing Fog
3:46 AM 19.0 °F - 19.0 °F 100% 30.41 in 0.2 mi Calm Calm - N/A Fog Light Freezing Fog
3:53 AM 19.0 °F - 18.0 °F 96% 30.41 in 0.2 mi Calm Calm - N/A Fog Light Freezing Fog
4:00 AM 19.0 °F - 18.0 °F 96% 30.40 in 0.5 mi Calm Calm - N/A Fog Light Freezing Fog
4:14 AM 18.0 °F - 17.1 °F 96% 30.40 in 2.0 mi Calm Calm - N/A   Overcast
4:22 AM 18.0 °F - 17.1 °F 96% 30.40 in 8.0 mi Calm Calm - N/A   Overcast
4:29 AM 19.0 °F - 17.1 °F 92% 30.40 in 1.8 mi Calm Calm - N/A   Overcast
4:39 AM 19.0 °F - 18.0 °F 96% 30.40 in 0.8 mi Calm Calm - N/A   Mist
4:53 AM 19.0 °F - 18.0 °F 96% 30.40 in 0.8 mi Calm Calm - N/A   Mist
5:53 AM 21.0 °F - 19.9 °F 96% 30.40 in 0.5 mi Calm Calm - N/A Fog Light Freezing Fog
6:33 AM 19.9 °F - 19.0 °F 96% 30.39 in 0.2 mi Calm Calm - N/A Fog Light Freezing Fog
6:53 AM 19.9 °F - 18.0 °F 92% 30.39 in 0.5 mi Calm Calm - N/A Fog Light Freezing Fog
7:13 AM 19.0 °F - 17.1 °F 92% 30.38 in 2.0 mi Calm Calm - N/A   Overcast
7:25 AM 19.0 °F - 17.1 °F 92% 30.38 in 1.2 mi Calm Calm - N/A   Overcast
7:44 AM 19.0 °F - 18.0 °F 96% 30.38 in 0.5 mi Calm Calm - N/A Fog Light Freezing Fog
7:53 AM 19.9 °F - 18.0 °F 92% 30.39 in 0.5 mi Calm Calm - N/A Fog Light Freezing Fog
8:24 AM 19.9 °F - 18.0 °F 92% 30.39 in 0.2 mi Calm Calm - N/A Fog Light Freezing Fog
8:53 AM 19.9 °F - 18.0 °F 92% 30.40 in 0.2 mi Calm Calm - N/A Fog Light Freezing Fog
9:09 AM 19.9 °F - 18.0 °F 92% 30.39 in 0.2 mi Calm Calm - N/A Fog Light Freezing Fog
9:23 AM 19.9 °F - 18.0 °F 92% 30.40 in 0.5 mi Calm Calm - N/A Fog Light Freezing Fog
9:42 AM 19.9 °F - 18.0 °F 92% 30.40 in 0.2 mi Calm Calm - N/A Fog Light Freezing Fog
9:53 AM 19.9 °F - 17.1 °F 89% 30.41 in 0.2 mi Calm Calm - N/A Fog Light Freezing Fog
10:22 AM 19.9 °F - 18.0 °F 92% 30.40 in 0.8 mi Calm Calm - N/A   Mist
10:33 AM 21.0 °F - 18.0 °F 88% 30.40 in 1.0 mi Calm Calm - N/A   Mist
10:38 AM 21.0 °F - 19.0 °F 92% 30.40 in 0.5 mi Calm Calm - N/A Fog Light Freezing Fog
10:53 AM 21.0 °F - 19.9 °F 96% 30.41 in 1.0 mi Calm Calm - N/A   Mist
11:08 AM 21.0 °F - 19.0 °F 92% 30.40 in 0.8 mi Calm Calm - N/A   Mist
11:20 AM 21.0 °F - 19.9 °F 96% 30.40 in 0.8 mi Calm Calm - N/A   Mist
11:33 AM 21.9 °F - 19.9 °F 92% 30.40 in 0.5 mi Calm Calm - N/A Fog Light Freezing Fog
11:43 AM 21.9 °F - 19.9 °F 92% 30.40 in 2.0 mi Calm Calm - N/A   Overcast
11:51 AM 23.0 °F - 19.4 °F 86% 30.40 in 10.0 mi Calm Calm - N/A   Mostly Cloudy
11:53 AM 23.0 °F - 19.9 °F 88% 30.41 in 10.0 mi Calm Calm - N/A   Mostly Cloudy
12:03 PM 23.0 °F - 19.9 °F 88% 30.40 in 10.0 mi Calm Calm - N/A   Scattered Clouds
12:53 PM 21.9 °F - 19.0 °F 89% 30.40 in 10.0 mi Calm Calm - N/A   Clear
1:53 PM 21.9 °F 17.2 °F 19.9 °F 92% 30.40 in 10.0 mi West 3.5 mph - N/A   Clear
2:53 PM 28.9 °F 21.9 °F 25.0 °F 85% 30.38 in 10.0 mi East 6.9 mph - N/A   Clear
3:53 PM 24.1 °F 19.7 °F 21.9 °F 91% 30.38 in 10.0 mi Variable 3.5 mph - N/A   Clear
4:53 PM 32.0 °F 24.2 °F 23.0 °F 69% 30.38 in 10.0 mi East 9.2 mph - N/A   Clear
5:53 PM 33.1 °F 26.1 °F 23.0 °F 66% 30.38 in 10.0 mi East 8.1 mph - N/A   Clear
6:53 PM 35.1 °F 26.9 °F 19.9 °F 54% 30.39 in 10.0 mi ESE 11.5 mph 19.6 mph N/A   Clear
7:53 PM 33.1 °F 25.5 °F 21.0 °F 61% 30.39 in 10.0 mi ESE 9.2 mph - N/A   Clear
8:53 PM 34.0 °F 28.0 °F 19.0 °F 54% 30.41 in 10.0 mi SE 6.9 mph - N/A   Clear
9:53 PM 33.1 °F 26.1 °F 21.0 °F 61% 30.43 in 10.0 mi SE 8.1 mph 19.6 mph N/A   Clear
10:53 PM 33.1 °F 24.9 °F 19.9 °F 59% 30.44 in 10.0 mi SSE 10.4 mph 17.3 mph N/A   Clear
11:53 PM 33.1 °F 25.5 °F 21.9 °F 64% 30.45 in 10.0 mi SE 9.2 mph - N/A   Clear